Regional Weather Roundup
Issued by NWS New Orleans/Baton Rouge, LA

Home | Current Version | Previous Version | Text Only | Print | Product List | Glossary On
Versions: 1 2 3 4 5 6 7 8 9 10 11 12 13 14 15 16 17 18 19 20 21 22 23 24 25 26 27 28 29 30 31 32 33 34 35 36 37 38 39 40 41 42 43 44 45 46 47 48 49 50
598
ASUS44 KLIX 251801
RWRLIX
NEW ORLEANS REGIONAL WEATHER ROUNDUP
NATIONAL WEATHER SERVICE NEW ORLEANS LA
1200 PM CST TUE NOV 25 2014

NOTE: "FAIR" INDICATES FEW OR NO CLOUDS BELOW 12,000 FEET WITH NO
      SIGNIFICANT WEATHER AND/OR OBSTRUCTIONS TO VISIBILITY.
      SKY/WX - SKY CONDITION AND SIGNIFICANT WEATHER.
      TMP - AIR TEMPERATURE.     DP    - DEWPOINT TEMPERATURE.
      RH  - RELATIVE HUMIDITY.   PRES  - PRESSURE.
      HI  - HEAT INDEX.          WCI   - WIND CHILL INDEX.

*  THESE STATIONS ARE NOT NWS OR FAA STATIONS AND ARE NOT UNDER
   NWS QUALITY CONTROL.

LAZ038-040-048-061>063-065>067-069-251900-
SOUTHEAST LOUISIANA

CITY           SKY/WX    TMP DP  RH WIND       PRES   REMARKS
N.O. AUDUBON     N/A     56  38  51 MISG        N/A
6HR MIN TEMP:  52; 6HR MAX TEMP:  58;

N.O. INTL ARPT CLOUDY    56  35  45 N9        30.16F
6HR MIN TEMP:  52; 6HR MAX TEMP:  56;

N.O. LAKEFRONT CLOUDY    57  37  47 N17       30.17F
6HR MIN TEMP:  55; 6HR MAX TEMP:  57;

N.O. DOWNTOWN* CLOUDY    55  34  44 N9        30.16F
6HR MIN TEMP:  54; 6HR MAX TEMP:  55;

SLIDELL        CLOUDY    54  38  54 NW7       30.14F
6HR MIN TEMP:  47; 6HR MAX TEMP:  56;

BATON ROUGE    CLOUDY    56  30  37 NW7       30.19F
6HR MIN TEMP:  40; 6HR MAX TEMP:  56;

BOOTHVILLE     PTSUNNY   58  41  53 N13G22    30.11F
6HR MIN TEMP:  58; 6HR MAX TEMP:  59;

BELLE CHASSE   CLOUDY    57  31  37 N9G18     30.14F
6HR MIN TEMP:  54; 6HR MAX TEMP:  59;

BOGALUSA*        N/A     56  35  44 N5        30.18F
6HR MIN TEMP:  42; 6HR MAX TEMP:  57;

NEW ROADS*     NOT AVBL
GONZALES*      NOT AVBL
HAMMOND*       NOT AVBL
HOUMA*         NOT AVBL
PORT FOURCHON* PTCLDY    59  36  41 N18G26    30.16F

$$

MSZ070-080>082-251900-
SOUTHERN MISSISSIPPI

CITY           SKY/WX    TMP DP  RH WIND       PRES   REMARKS
MCCOMB         CLOUDY    54  23  30 N12       30.19F
6HR MIN TEMP:  40; 6HR MAX TEMP:  55;

GULFPORT       PTSUNNY   59  30  33 N15       30.11F
6HR MIN TEMP:  52; 6HR MAX TEMP:  60;

BILOXI         PTSUNNY   62  29  29 N20G26    30.10F
6HR MIN TEMP:  52; 6HR MAX TEMP:  62;

PASCAGOULA     PTSUNNY   62  31  31 N16G22    30.09F
6HR MIN TEMP:  50; 6HR MAX TEMP:  62;

STENNIS ARPT*  PTSUNNY   57  27  30 N12G17    30.13F

$$

COASTAL OBSERVATIONS
LAKE AND NEARSHORE STATIONS

STATION/POSITION TIME  TEMP    WIND        PRES    WAVE
                       AIR SEA DIR/SP/G            HT/PER
                 (UTC) (F)     (DEG/KT/KT) (MB)    (FT/S)
PASCAGOULA       1700   60      10/ 14/ 20 1018.5
WAVELAND YACHT   1700   57     360/ 14/ 16 1019.9
GRAND ISLE       1700   58 63   20/ 18/ 23 1020.8
SOUTHWEST PASS   1700   61                 1019.4
NEW CANAL        1700   55 56  360/ 12/ 15 1022.0
SHELL BEACH      1700   56 54  360/ 17/ 19 1020.6

OFFSHORE STATIONS

STATION/POSITION TIME  TEMP    WIND        PRES    WAVE
                       AIR SEA DIR/SP/G            HT/PER
                 (UTC) (F)     (DEG/KT/KT) (MB)    (FT/S)
64 S DAUPHIN ISL 1718   60 72   40/ 21/ 25 1018.0    7/ 7

$$




USA.gov is the U.S. government's official web portal to all federal, state and local government web resources and services.